Location: LDNL
(36.4545°S, 141.6685°E)
Time: 23:30:07
(UTC+11:00)

ISS - Pass Details

Date: 12 December 2021
Orbit: 413 x 422 km, 51.6° (Epoch: 22 January)

Event Time Altitude Azimuth Distance (km) Brightness Sun altitude
Rises 23:56:33 0° 270° (W) 2,366 0.3 -26.7°
Reaches altitude 10° 23:59:13 10° 248° (WSW) 1,507 -0.4 -26.9°
Maximum altitude 00:01:27 16° 206° (SSW) 1,178 -0.7 -27.1°
Drops below altitude 10° 00:03:43 10° 165° (SSE) 1,514 -0.3 -27.3°
Sets 00:06:24 0° 142° (SE) 2,383 0.5 -27.5°
